Wind_Speed
40 40 40 40 41 41 39 36 34 31 30 28 26 25 25 24 23 21 19 18 17 17 16 16 16 15 15 15 14 14 14 14 14 14 14 14 14 13 13 13 13 13 13 13 13 13 13 13 12
42 42 42 43 43 42 40 37 35 33 31 30 29 28 28 27 25 22 21 20 19 19 18 18 18 17 17 16 16 16 16 15 15 15 15 15 15 15 15 15 15 15 15 15 15 15 15 15 14
43 44 44 45 45 43 40 38 36 34 32 32 31 30 30 29 27 24 23 22 21 20 20 20 19 19 18 17 17 18 18 17 17 17 17 17 17 17 17 18 18 17 17 18 17 17 17 17 16
42 43 45 45 45 42 40 39 37 36 34 33 32 32 31 30 29 26 24 23 23 22 22 21 21 21 21 20 19 20 20 20 20 20 20 20 20 20 20 20 20 20 20 20 20 19 19 19 19
40 41 43 44 43 42 41 39 38 38 36 34 33 33 32 31 29 28 26 24 24 24 24 23 23 23 23 23 22 22 22 22 22 23 23 23 23 23 23 23 23 22 22 22 22 22 21 21 21
38 39 41 41 42 41 41 39 39 39 37 35 34 34 33 31 30 28 27 26 25 25 25 25 26 25 25 25 24 24 24 24 24 24 24 24 24 24 24 25 24 24 24 24 24 23 23 23 23
36 37 38 39 40 40 40 39 39 39 38 36 35 35 33 32 31 29 28 28 27 27 27 27 27 27 27 27 26 25 25 25 25 26 26 26 26 26 26 26 26 26 26 25 25 25 25 25 25
32 35 37 38 38 39 39 39 38 39 39 37 36 35 33 32 31 31 30 28 28 28 29 29 29 29 29 28 27 26 26 26 27 27 27 27 27 26 26 26 26 26 27 27 27 27 27 27 27
31 33 35 36 37 37 38 38 38 38 38 37 36 35 34 33 32 31 31 30 29 29 30 30 30 30 30 29 27 27 27 27 28 28 28 28 28 27 27 27 27 27 28 28 28 29 29 29 29
30 32 33 34 36 37 37 38 37 37 37 37 37 36 35 33 32 31 31 30 30 30 30 30 30 31 31 30 29 28 28 28 28 28 28 28 28 28 28 28 28 28 29 29 29 30 30 31 31
30 30 31 33 33 35 35 36 36 37 37 37 36 36 35 33 32 32 31 31 30 30 30 30 30 31 31 31 30 29 28 28 28 28 28 28 28 28 29 29 29 30 30 30 31 31 32 32 33
27 29 30 32 33 33 34 34 35 36 36 36 35 34 34 33 32 31 30 30 31 30 30 30 30 30 31 30 29 28 28 28 28 28 29 29 29 29 30 30 31 32 32 33 33 33 34 34 34
24 26 29 30 31 31 33 34 34 34 34 35 35 34 34 33 33 32 31 31 30 30 30 29 30 29 29 30 29 29 28 28 29 30 30 30 30 31 32 33 34 34 35 35 35 36 36 36 36
22 23 25 28 29 30 31 34 34 33 33 33 34 34 33 33 33 32 32 32 30 30 29 29 29 29 29 29 29 29 29 29 30 31 30 31 32 32 33 34 35 35 35 36 36 37 37 37 37
21 21 23 26 27 29 30 31 33 32 32 32 33 33 33 33 33 32 32 32 31 30 30 30 30 29 30 30 30 30 30 29 30 31 31 32 32 33 33 34 35 35 36 36 37 37 37 38 38
20 21 22 25 25 26 28 29 30 31 30 29 30 32 32 31 32 32 32 32 32 31 30 30 30 30 31 31 31 31 31 31 31 31 31 32 33 33 34 35 35 36 36 37 37 38 38 39 39
17 19 20 23 24 24 26 26 28 29 30 28 28 28 30 31 31 31 31 31 31 31 31 31 31 31 32 32 32 33 34 34 33 32 33 33 34 35 35 35 36 37 37 38 38 38 39 39 40
14 17 18 20 22 22 23 25 26 27 29 28 28 28 29 31 31 30 31 31 30 31 31 31 32 32 33 33 33 33 34 35 35 34 34 35 35 36 35 35 36 37 38 38 38 39 39 40 40
11 13 16 18 19 20 21 22 24 25 25 26 27 27 29 30 31 31 30 31 30 31 32 32 33 33 34 33 34 35 35 36 37 37 36 35 36 36 36 36 36 36 37 38 38 39 39 38 39
10 12 14 16 18 19 20 20 22 23 24 25 25 25 27 28 29 29 30 30 31 31 32 33 34 34 34 35 35 36 37 37 37 37 37 36 36 36 36 36 37 37 37 38 38 38 38 39 39
10 12 13 14 16 18 19 20 22 24 24 25 25 25 26 27 27 28 29 30 31 32 32 33 34 34 34 35 36 36 37 37 37 37 37 37 37 37 36 36 38 37 37 38 38 38 39 40 41
10 12 13 13 14 15 17 19 21 22 24 24 24 24 25 26 27 28 28 30 31 31 32 32 33 35 35 35 37 37 37 37 36 37 37 37 37 37 36 36 36 36 37 38 38 38 39 39 40
9 11 12 13 14 14 15 17 19 20 21 23 23 24 25 26 26 27 28 29 31 32 33 33 33 34 35 36 37 37 37 37 37 37 37 37 37 37 37 37 36 36 37 37 37 39 39 39 40
9 10 11 12 13 15 15 16 17 18 19 21 22 23 24 25 26 26 28 29 30 32 33 33 34 34 35 36 36 37 38 37 37 37 37 37 37 38 38 38 38 38 37 37 38 39 39 40 40
9 10 11 12 13 13 14 16 16 17 18 19 20 22 23 24 25 26 27 29 31 31 32 33 34 34 34 35 35 36 36 36 37 38 38 38 38 38 38 38 38 38 38 38 39 39 39 40 40
9 10 11 12 12 13 14 15 15 16 17 18 19 20 21 22 24 25 27 28 30 31 32 32 33 34 35 36 36 36 37 38 38 39 39 39 38 38 38 39 39 39 39 39 39 39 40 40 40
10 10 11 12 13 13 13 14 15 16 17 18 19 20 21 22 23 25 26 27 29 30 32 33 33 34 35 36 37 37 38 39 39 40 40 40 40 39 39 40 40 40 40 40 40 40 40 40 40
11 11 12 14 15 15 14 14 14 15 17 18 19 20 22 22 23 24 26 27 28 30 31 33 34 35 36 36 38 38 39 39 39 39 39 39 40 40 39 39 39 39 39 39 40 40 39 40 40
12 12 13 15 16 17 16 15 15 17 18 19 20 21 22 23 23 24 25 27 28 29 31 32 34 35 36 37 37 38 38 37 38 39 39 39 39 39 39 39 39 39 39 38 39 39 39 39 39
13 14 14 15 16 17 18 17 17 18 19 20 21 21 22 23 24 25 26 27 28 30 31 32 33 34 35 36 37 37 37 36 37 37 37 37 37 38 38 38 39 39 39 39 39 39 39 39 39
Wind_Direction
239 238 238 237 237 237 238 238 238 237 237 237 237 238 240 243 244 244 243 242 243 243 243 242 242 243 244 246 247 249 252 255 258 260 260 260 262 264 265 265 266 266 266 267 268 268 269 270 270
239 238 237 236 236 237 238 238 237 237 237 237 237 238 240 242 244 244 244 243 243 244 244 243 244 245 246 247 249 251 254 256 258 259 261 261 262 263 265 266 267 267 267 267 268 269 269 270 271
238 237 237 236 236 236 237 237 237 236 235 235 236 238 240 242 244 244 244 244 244 245 246 246 245 246 247 248 251 254 256 257 259 259 260 261 262 264 265 266 267 267 268 268 268 268 269 269 269
237 236 235 235 236 235 235 236 236 236 235 236 237 238 239 242 244 244 244 244 245 247 247 248 247 247 249 251 253 255 256 257 259 260 261 262 262 263 265 266 267 268 268 268 268 269 269 269 268
236 235 234 234 234 234 234 233 234 235 235 236 237 238 240 242 243 244 244 244 245 247 247 247 248 249 250 253 254 256 258 259 260 262 263 263 264 264 264 266 267 268 269 269 268 268 269 269 269
236 235 234 234 233 233 233 233 233 234 234 234 236 237 239 241 242 243 244 244 246 248 248 248 249 251 252 253 255 258 260 261 262 263 263 264 264 265 266 266 267 268 268 268 268 268 268 268 268
237 235 235 234 233 232 232 232 232 233 233 233 235 237 239 240 241 242 244 243 245 248 250 251 250 251 253 253 257 258 260 262 263 263 264 264 265 266 266 266 266 266 267 267 267 267 267 267 268
236 236 234 232 232 231 230 231 231 231 232 233 235 237 238 239 241 243 244 245 247 249 250 251 250 251 252 255 258 258 260 262 263 264 264 265 265 266 267 267 266 266 267 267 267 267 267 267 268
234 235 234 231 230 229 229 229 229 230 231 231 234 236 238 239 241 243 244 246 248 249 249 250 250 251 253 255 257 258 260 262 263 264 265 265 265 266 267 267 267 268 268 268 267 267 268 268 268
232 234 233 231 228 227 228 228 228 229 230 231 232 235 237 239 242 244 245 246 247 247 248 250 250 251 253 255 256 257 259 261 263 264 265 265 266 266 266 267 267 268 269 268 268 268 268 269 269
231 233 231 227 226 225 227 228 227 228 230 231 232 234 237 239 242 244 245 245 246 248 249 250 250 251 253 255 256 257 258 260 262 263 263 265 266 267 268 268 269 269 270 270 270 270 270 270 270
229 230 229 226 225 225 226 226 226 228 230 231 232 235 237 239 240 243 244 246 247 247 249 251 250 251 252 254 254 255 256 259 261 262 264 265 267 268 268 270 270 270 271 271 271 271 271 272 271
227 229 227 224 224 225 227 226 226 229 230 232 233 234 237 239 240 243 244 245 248 247 247 248 248 249 251 252 253 253 256 259 261 264 265 267 268 269 271 271 271 271 270 270 271 272 272 272 271
226 227 226 225 224 226 228 227 227 228 231 233 234 235 237 238 240 242 243 245 247 247 246 246 247 248 249 250 253 255 258 261 262 264 266 268 270 271 272 272 272 272 271 270 271 271 271 271 271
225 226 228 226 225 226 230 230 230 230 234 234 235 235 237 239 240 241 242 244 245 246 246 246 247 247 248 251 254 256 260 263 264 265 267 269 270 271 272 273 273 272 272 271 271 272 272 272 272
226 226 226 226 225 227 229 231 233 232 234 236 236 235 238 240 241 242 242 243 243 245 246 246 246 248 249 253 256 258 260 262 265 265 267 269 270 272 273 273 274 274 273 272 273 273 273 273 272
224 224 223 224 226 228 229 230 232 233 234 236 235 236 238 241 242 243 242 242 242 243 246 246 247 248 250 253 257 259 261 262 265 266 267 270 272 273 274 274 275 276 275 274 274 274 274 273 273
223 226 225 226 226 229 230 231 233 235 237 238 238 238 240 241 242 243 242 242 242 243 245 247 248 249 252 256 258 260 262 263 265 266 270 271 272 274 274 274 275 275 275 275 275 275 274 273 273
223 228 229 228 228 230 230 231 234 236 237 238 240 240 240 241 242 241 242 242 243 244 246 248 250 251 253 257 260 261 265 266 267 268 269 271 272 274 274 275 274 275 275 275 275 275 275 274 274
227 228 229 230 232 233 233 234 235 236 236 238 240 240 239 241 241 242 243 244 245 246 249 250 251 254 256 258 261 263 264 266 268 270 270 270 273 275 275 275 275 276 277 276 275 275 274 275 275
235 232 231 233 236 238 239 238 238 238 237 237 240 241 240 241 242 243 244 245 246 247 250 253 254 257 258 260 262 265 266 267 269 270 272 273 274 275 275 275 276 277 278 278 277 276 275 275 275
245 239 236 238 241 240 242 241 239 239 238 239 241 243 242 243 243 245 246 247 248 249 251 254 256 258 260 262 264 267 267 268 270 271 272 273 274 274 275 277 279 279 278 279 278 277 276 276 275
254 247 244 244 245 245 245 245 240 241 241 241 243 246 247 246 247 248 249 250 251 252 254 255 259 260 261 263 264 267 268 268 270 271 271 272 274 275 276 279 281 281 280 280 279 279 278 277 276
258 253 252 250 250 249 248 247 242 241 241 242 244 247 249 250 250 251 251 252 254 254 255 258 260 261 261 262 264 267 267 267 269 271 272 272 275 276 278 279 280 282 282 281 281 280 279 278 277
258 260 259 255 253 253 252 251 247 244 245 247 247 248 250 252 252 253 254 255 257 256 257 259 261 261 261 263 264 265 266 266 268 269 271 273 275 277 278 279 280 281 282 282 282 282 281 280 279
267 268 267 264 259 259 258 256 254 251 251 251 251 250 251 254 255 257 258 259 260 260 260 261 262 262 262 264 264 265 266 268 270 271 272 273 275 277 278 279 280 281 282 282 283 283 282 281 280
272 274 273 273 269 266 263 260 257 256 254 253 253 254 254 256 257 259 261 262 264 264 263 263 263 265 266 266 266 267 269 270 270 271 271 273 274 276 278 279 280 280 281 282 282 283 282 282 281
275 273 274 275 275 273 267 265 264 259 257 255 255 256 258 260 261 262 263 264 266 266 265 265 265 267 267 269 269 269 271 270 270 271 271 272 274 275 277 279 280 280 281 281 282 283 282 282 282
279 277 276 275 275 274 272 270 269 266 263 261 260 260 260 262 263 265 265 266 267 267 268 268 268 268 268 269 270 271 272 272 272 272 272 273 273 274 276 278 279 280 281 282 282 283 282 282 282
281 279 278 278 277 276 277 277 274 273 270 266 265 265 266 266 267 267 267 267 268 269 270 270 271 270 270 271 271 272 273 273 273 274 275 275 275 276 277 278 279 280 281 281 282 283 283 282 282
Height
5810 5814 5817 5819 5822 5824 5828 5834 5839 5843 5846 5848 5851 5852 5854 5856 5859 5864 5864 5864 5865 5867 5868 5869 5870 5871 5872 5873 5874 5875 5876 5876 5877 5877 5877 5878 5878 5878 5878 5878 5878 5878 5878 5878 5878 5878 5877 5877 5877
5801 5804 5807 5810 5812 5816 5823 5828 5833 5837 5841 5843 5845 5847 5849 5851 5854 5857 5859 5860 5862 5863 5865 5866 5867 5868 5869 5870 5871 5872 5873 5874 5874 5875 5875 5875 5876 5876 5876 5876 5876 5876 5876 5876 5876 5875 5875 5875 5875
5790 5794 5798 5800 5803 5810 5817 5823 5827 5831 5834 5836 5839 5842 5844 5847 5850 5852 5854 5856 5858 5860 5861 5862 5864 5865 5866 5867 5868 5869 5870 5871 5871 5872 5872 5872 5873 5873 5873 5873 5873 5873 5873 5873 5873 5873 5872 5872 5872
5780 5784 5788 5791 5797 5805 5811 5816 5821 5824 5827 5830 5833 5836 5839 5842 5845 5848 5850 5852 5854 5855 5857 5858 5860 5861 5862 5863 5864 5866 5866 5867 5868 5868 5869 5869 5869 5869 5870 5870 5870 5870 5870 5870 5870 5869 5869 5869 5869
5771 5775 5779 5783 5790 5797 5803 5808 5813 5817 5820 5824 5827 5830 5833 5837 5840 5842 5845 5847 5849 5851 5852 5854 5855 5856 5858 5859 5860 5861 5862 5863 5864 5864 5865 5865 5865 5866 5866 5866 5866 5866 5866 5866 5866 5866 5865 5865 5865
5764 5767 5772 5777 5784 5790 5796 5800 5805 5809 5813 5817 5820 5824 5827 5831 5834 5837 5840 5842 5844 5846 5847 5848 5850 5851 5853 5854 5855 5856 5857 5858 5859 5859 5860 5860 5860 5861 5861 5861 5861 5861 5861 5861 5861 5861 5861 5861 5861
5758 5761 5766 5772 5777 5782 5788 5792 5797 5801 5806 5810 5814 5818 5821 5825 5828 5831 5834 5836 5838 5840 5842 5843 5844 5846 5847 5848 5849 5851 5852 5853 5854 5855 5855 5855 5855 5856 5856 5856 5856 5856 5856 5856 5856 5856 5856 5856 5856
5751 5755 5759 5765 5770 5776 5781 5785 5789 5794 5799 5804 5808 5811 5816 5820 5822 5825 5827 5830 5832 5834 5836 5838 5839 5840 5842 5843 5844 5845 5847 5848 5849 5849 5850 5850 5850 5850 5851 5851 5851 5851 5851 5851 5851 5851 5851 5851 5851
5745 5749 5753 5759 5763 5769 5773 5777 5783 5788 5793 5798 5802 5806 5810 5813 5816 5819 5821 5824 5826 5828 5829 5831 5833 5835 5836 5837 5838 5840 5841 5842 5843 5843 5844 5844 5845 5845 5845 5845 5845 5845 5845 5845 5845 5845 5845 5845 5845
5739 5742 5748 5753 5757 5762 5766 5771 5776 5782 5786 5791 5795 5800 5804 5807 5810 5813 5815 5818 5820 5821 5823 5825 5827 5828 5830 5832 5833 5834 5835 5836 5837 5837 5838 5839 5839 5839 5839 5839 5839 5839 5839 5839 5839 5839 5839 5839 5839
5733 5738 5742 5746 5750 5755 5759 5764 5770 5776 5781 5785 5790 5794 5797 5801 5804 5806 5809 5811 5813 5815 5817 5819 5820 5822 5824 5826 5827 5828 5829 5830 5831 5831 5832 5833 5833 5833 5833 5833 5833 5833 5833 5833 5833 5832 5832 5832 5832
5729 5733 5737 5741 5745 5750 5754 5759 5765 5770 5775 5779 5783 5787 5791 5794 5797 5800 5802 5805 5807 5809 5811 5813 5814 5816 5818 5819 5821 5822 5823 5824 5825 5825 5826 5826 5827 5827 5827 5827 5827 5827 5826 5826 5826 5826 5825 5825 5824
5726 5729 5733 5737 5741 5745 5749 5754 5759 5764 5769 5773 5777 5781 5784 5788 5791 5793 5796 5798 5800 5803 5805 5806 5808 5810 5812 5813 5814 5815 5816 5817 5818 5819 5820 5820 5820 5820 5820 5820 5819 5819 5819 5819 5818 5818 5817 5817 5817
5723 5726 5729 5733 5737 5741 5745 5749 5754 5759 5763 5767 5771 5775 5778 5781 5784 5787 5789 5792 5794 5797 5798 5800 5802 5804 5805 5807 5808 5809 5810 5811 5812 5812 5813 5813 5813 5813 5813 5812 5812 5811 5811 5810 5810 5810 5809 5809 5808
5720 5723 5726 5729 5733 5737 5741 5745 5749 5754 5757 5761 5765 5769 5772 5775 5777 5780 5783 5785 5788 5790 5792 5793 5796 5797 5799 5801 5802 5803 5803 5804 5805 5805 5806 5806 5806 5806 5805 5804 5804 5803 5802 5802 5802 5801 5800 5800 5799
5718 5721 5723 5727 5730 5734 5739 5742 5745 5748 5752 5756 5759 5763 5766 5768 5771 5774 5776 5779 5781 5784 5786 5788 5790 5791 5793 5794 5795 5796 5796 5796 5797 5797 5798 5798 5798 5798 5797 5796 5795 5795 5794 5793 5793 5792 5791 5790 5790
5716 5718 5721 5724 5727 5730 5734 5738 5741 5743 5747 5750 5753 5757 5760 5763 5765 5768 5770 5772 5775 5777 5779 5781 5783 5785 5786 5787 5788 5789 5789 5789 5789 5790 5790 5790 5790 5790 5789 5788 5787 5786 5785 5784 5784 5783 5782 5781 5780
5715 5716 5719 5721 5724 5727 5730 5733 5736 5739 5742 5745 5748 5751 5754 5757 5759 5762 5764 5766 5768 5771 5773 5775 5776 5778 5779 5779 5780 5781 5781 5782 5782 5782 5782 5782 5782 5781 5780 5779 5778 5777 5776 5775 5774 5773 5772 5771 5770
5713 5715 5717 5719 5721 5724 5726 5729 5732 5734 5738 5740 5743 5746 5748 5751 5753 5755 5757 5760 5762 5764 5766 5768 5769 5771 5772 5772 5773 5774 5774 5774 5774 5774 5773 5774 5773 5772 5771 5770 5769 5768 5767 5766 5765 5764 5763 5762 5761
5712 5713 5715 5717 5719 5721 5723 5726 5728 5731 5733 5736 5738 5740 5743 5745 5747 5749 5752 5754 5756 5757 5759 5761 5762 5763 5765 5765 5766 5766 5766 5765 5765 5765 5765 5765 5764 5763 5762 5761 5760 5759 5758 5756 5755 5754 5753 5752 5751
5711 5712 5713 5715 5717 5718 5720 5723 5724 5726 5729 5731 5733 5735 5737 5739 5741 5743 5745 5747 5749 5751 5752 5754 5755 5756 5757 5757 5757 5757 5757 5757 5757 5756 5756 5756 5756 5755 5754 5753 5751 5750 5748 5747 5745 5744 5743 5742 5741
5709 5710 5711 5712 5714 5715 5717 5719 5721 5722 5724 5726 5728 5730 5731 5733 5735 5737 5739 5741 5742 5744 5745 5746 5748 5748 5749 5749 5750 5749 5749 5749 5749 5748 5748 5747 5747 5746 5745 5744 5742 5740 5739 5737 5736 5734 5733 5732 5731
5708 5708 5709 5710 5711 5712 5713 5715 5717 5718 5720 5722 5723 5725 5726 5728 5730 5731 5732 5734 5735 5737 5738 5739 5740 5741 5741 5741 5742 5741 5741 5741 5740 5740 5739 5739 5738 5737 5736 5735 5733 5731 5730 5728 5726 5725 5723 5722 5721
5706 5707 5707 5707 5708 5710 5710 5711 5713 5714 5715 5717 5718 5719 5720 5722 5723 5725 5726 5727 5728 5729 5730 5731 5732 5732 5732 5733 5733 5733 5733 5733 5732 5731 5731 5730 5729 5728 5727 5725 5724 5722 5720 5718 5717 5715 5713 5712 5710
5704 5705 5705 5705 5705 5706 5707 5707 5709 5710 5711 5712 5713 5714 5715 5716 5717 5718 5719 5720 5721 5722 5722 5723 5723 5723 5724 5724 5724 5725 5724 5724 5723 5722 5722 5721 5720 5719 5717 5716 5714 5713 5711 5709 5707 5705 5704 5702 5700
5702 5702 5703 5703 5703 5703 5703 5703 5705 5706 5706 5707 5708 5709 5709 5710 5711 5712 5713 5713 5714 5714 5714 5714 5715 5715 5716 5716 5715 5715 5715 5715 5714 5713 5712 5711 5710 5709 5708 5706 5705 5703 5701 5699 5698 5696 5694 5692 5690
5700 5699 5700 5700 5699 5700 5700 5701 5701 5701 5702 5702 5703 5704 5704 5705 5705 5706 5706 5706 5707 5707 5707 5706 5707 5707 5707 5706 5706 5706 5705 5705 5704 5703 5702 5701 5700 5699 5698 5696 5695 5693 5691 5689 5688 5685 5683 5681 5679
5698 5697 5697 5696 5695 5696 5697 5697 5698 5697 5697 5698 5698 5698 5698 5699 5699 5699 5699 5700 5699 5699 5699 5698 5698 5698 5698 5697 5697 5696 5696 5695 5694 5693 5692 5691 5690 5689 5688 5686 5685 5683 5681 5679 5677 5675 5673 5671 5669
5695 5694 5693 5692 5692 5692 5692 5696 5693 5692 5692 5692 5692 5692 5692 5692 5692 5692 5692 5692 5692 5691 5690 5690 5689 5689 5689 5688 5687 5686 5686 5685 5684 5683 5682 5681 5680 5679 5678 5676 5675 5673 5671 5669 5667 5665 5662 5660 5658
5691 5690 5690 5689 5689 5687 5687 5692 5688 5687 5686 5686 5686 5686 5686 5686 5685 5685 5685 5684 5684 5683 5682 5681 5680 5680 5679 5678 5678 5677 5676 5675 5674 5673 5672 5671 5670 5669 5668 5666 5665 5663 5661 5659 5657 5655 5652 5650 5648